Regional Weather Roundup
Issued by NWS Midland/Odessa, TX

Skip options and go directly to product.
Home | Oldest Version | Next Version | Current Version | All | Text Only | Save Text | Print | Product List | Glossary On

Skip product version selection by date and time.   
026
ASUS44 KMAF 091801
RWRMAF
MIDLAND AREA WEATHER ROUNDUP
NATIONAL WEATHER SERVICE MIDLAND TX
1200 PM CST FRI DEC 09 2016

...IN SOUTHWEST TEXAS AND SOUTHEAST NEW MEXICO...

CITY           SKY/WX    TMP DP  RH WIND       PRES   REMARKS
ALPINE         CLOUDY    39  37  93 SW17      30.47F WCI  30
ANDREWS        CLOUDY    32  26  76 S8        30.44F WCI  25
ARTESIA          N/A     30  30 100 CALM      30.41F
BIG SPRING     CLOUDY    35  24  66 SE6       30.52F WCI  29
CARLSBAD       CLOUDY    32  30  92 S8        30.41F WCI  25
DRYDEN           N/A     36  27  69 S6        30.51F WCI  31
FORT STOCKTON  PTSUNNY   43  34  70 E7        30.44F WCI  39
GUAD PASS      NOT AVBL
HOBBS          CLOUDY    32  32 100 S10       30.44S WCI  24
MARFA          CLOUDY    37  33  85 S8        30.44F WCI  31
MIDLAND AIRPK  CLOUDY    36  24  64 S6        30.47F WCI  31
MIDLAND INTL   CLOUDY    34  24  67 S7        30.46F WCI  28
ODESSA         CLOUDY    34  24  67 SE8       30.46F WCI  27
PECOS          CLOUDY    37  30  75 E9        30.46F WCI  30
PRESIDIO       CLOUDY    41  30  65 CALM      30.48F
SEMINOLE       CLOUDY    33  27  77 S9        30.45F WCI  25
SNYDER         CLOUDY    31  22  69 S7        30.51F WCI  24
WINK           CLOUDY    35  28  75 SE7       30.45F WCI  29
$$
...OTHER STATIONS IN TEXAS...

CITY           SKY/WX    TMP DP  RH WIND       PRES   REMARKS
ABILENE        CLOUDY    33  15  47 S8        30.55F WCI  26
AMARILLO       CLOUDY    33  25  72 S25       30.29F WCI  20
AUSTIN         CLOUDY    41  20  43 VRB6      30.60F WCI  37
BROWNSVILLE    CLOUDY    43  34  70 NW20G26   30.52F WCI  34
CORPUS CHRISTI CLOUDY    45  28  51 N10       30.58F WCI  40
DALLAS FTW     CLOUDY    35  13  40 CALM      30.62F
DEL RIO        CLOUDY    41  26  55 CALM      30.58F
EL PASO        CLOUDY    37  27  67 NE3       30.44F
HOUSTON INT    MOSUNNY   45  23  42 N7        30.58F
LUBBOCK        CLOUDY    31  24  75 S17       30.39F WCI  19
SAN ANGELO     CLOUDY    41  22  46 VRB7      30.53F WCI  36
SAN ANTONIO    CLOUDY    42  18  37 N9        30.59F WCI  37
WACO           SUNNY     40  19  43 NW5       30.62F WCI  37
WICHITA FALLS  NOT AVBL
$$
...OTHER LOCATIONS IN NEW MEXICO...

CITY           SKY/WX    TMP DP  RH WIND       PRES   REMARKS
ALAMAGORDO     NOT AVBL
ALBUQUERQUE    MOSUNNY   35  26  69 S7        30.38F WCI  29
CANNON AFB     CLOUDY    34  32  93 SW16      30.30F WCI  23
CLOVIS         CLOUDY    30  25  80 SW21      30.30F WCI  17
HOLLOMAN AFB   CLOUDY    34  26  74 CALM      30.48F
ROSWELL        CLOUDY    30  27  88 SW7       30.39F WCI  23
RUIDOSO        SUNNY     45  25  45 NE6       30.35F
SANTA FE       SUNNY     37  24  59 W16       30.32F WCI  28
TRUTH OR CONSE SUNNY     38  26  62 SW5       30.39F WCI  34
TUCUMCARI      SUNNY     45  28  51 W12       30.22F WCI  39
$$

  • National Weather Service
  • Southern Region Headquarters
  • 819 Taylor Street, Room 10A06
  • Fort Worth, TX 76102
  • Page Author: NWS Fort Worth
  • Web Master: SR-SRH.Webmaster@noaa.gov
  •  
  • Page last modified: 30-Sep-2016 6:36 PM UTC
USA.gov is the U.S. government's official web portal to all federal, state and local government web resources and services.